User: anonymous   Login
Location: Austin, TX
(30.3000°N, 97.7500°W)
Time: 09:54:25
(UTC-05:00)
Language:

Cosmos 2082 Rocket - Orbit

View from above orbital plane
View from above orbital plane
View from above satellite
View from above satellite

Ground track
Ground track

The orbit data is extracted from the following two-line orbital elements,

1 20625U 90046B   18110.44860894 -.00000282  00000-0 -12166-3 0  9991
2 20625  70.9992 224.2508 0014427 351.1592   8.9274 14.14626691441289
Epoch (UTC): 20 April 2018 10:45:59
Eccentricity: 0.0014427
inclination: 70.9992°
perigee height: 833 km
apogee height: 854 km
right ascension of ascending node: 224.2508°
argument of perigee: 351.1592°
revolutions per day: 14.14626691
mean anomaly at epoch: 8.9274°
orbit number at epoch: 44128

The dashed part of the orbit path shows where the satellite is in the earth's shadow,  

DLR